Stations météo

réclame
Mon MeteoGroup
Chivenor, Grande-Bretagne (3707): Température de l'air & dewpoint: 13.11.2017 19:00:00 - 19.11.2017 19:00:00 (GMT)Chivenor, Grande-Bretagne (3707): Vitesse du vent & gusts: 13.11.2017 19:00:00 - 19.11.2017 19:00:00 (GMT)Chivenor, Grande-Bretagne (3707): Direction du vent: 13.11.2017 19:00:00 - 19.11.2017 19:00:00 (GMT)Chivenor, Grande-Bretagne (3707): reduced air pressure: 13.11.2017 19:00:00 - 19.11.2017 19:00:00 (GMT)Chivenor, Grande-Bretagne (3707): visibility: 13.11.2017 19:00:00 - 19.11.2017 19:00:00 (GMT)Chivenor, Grande-Bretagne (3707): Quantités de précipitations: 13.11.2017 19:00:00 - 19.11.2017 19:00:00 (GMT)
Date & Time tt [°C] td [°C] ff [km/h] ff [knt] fx [km/h] fx [knt] dd ppp [hPa] vv [km] rr [mm]
19.11.2017 19:00:00 9,4 8,4 11 6 - - ESE 1023,4 22 0,0
19.11.2017 18:00:00 9,3 8,3 13 7 - - E 1023,6 30 0,0
19.11.2017 17:00:00 9,6 8,4 11 6 - - ESE 1023,6 16 0,0
19.11.2017 16:00:00 10,1 7,9 11 6 - - ESE 1023,9 35 0,0
19.11.2017 15:00:00 10,4 7,9 9 5 - - ESE 1024,1 40 0,0
19.11.2017 14:00:00 10,3 7,7 8 4 - - SE 1024,6 45 0,0
19.11.2017 13:00:00 10,3 7,9 9 5 - - ESE 1024,5 35 0,0
19.11.2017 12:00:00 9,8 8,1 9 5 - - E 1025,1 40 0,0
19.11.2017 11:00:00 9,1 7,8 9 5 - - ENE 1025,2 45 0,0
19.11.2017 10:00:00 8,3 7,2 8 4 - - E 1025,1 40 0,0
19.11.2017 09:00:00 7,6 6,9 9 5 - - E 1024,7 26 0,0
19.11.2017 08:00:00 7,8 7,0 9 5 - - E 1024,8 45 0,0
19.11.2017 07:00:00 7,9 7,2 8 4 - - E 1024,3 30 0,0
19.11.2017 06:00:00 8,1 7,5 8 4 - - E 1024,1 50 0,0
19.11.2017 05:00:00 8,0 7,3 5 3 - - ENE 1024,0 40 0,0
19.11.2017 04:00:00 8,0 7,2 4 2 - - ESE 1023,8 50 0,0
19.11.2017 03:00:00 7,8 6,8 2 1 - - N 1023,8 40 0,0
19.11.2017 02:00:00 8,1 7,2 4 2 - - SW 1023,4 50 -
19.11.2017 01:00:00 8,7 7,6 4 2 - - W 1023,6 50 0,0
19.11.2017 00:00:00 9,2 7,7 5 3 - - NW 1023,4 50 0,0
18.11.2017 23:00:00 9,4 7,7 9 5 - - N 1022,9 50 0,0
18.11.2017 22:00:00 9,6 8,5 8 4 - - N 1022,9 7 0,2
18.11.2017 21:00:00 10,5 9,0 18 10 - - N 1022,6 21 0,0
18.11.2017 20:00:00 12,8 11,5 21 11 - - WNW 1022,3 16 0,0
18.11.2017 19:00:00 12,7 11,6 29 16 - - W 1022,4 11 0,2
18.11.2017 18:00:00 12,6 11,6 29 16 - - W 1022,5 15 0,0
18.11.2017 17:00:00 12,1 11,5 29 16 54 29 W 1022,7 13 0,2
18.11.2017 16:00:00 12,0 11,1 28 15 - - W 1022,8 6 0,2
18.11.2017 15:00:00 12,2 11,1 29 16 - - W 1023,1 6 0,6
18.11.2017 14:00:00 12,1 10,7 31 17 46 25 W 1023,6 15 0,0
18.11.2017 13:00:00 12,3 10,4 28 15 - - W 1024,0 28 0,0
18.11.2017 12:00:00 12,1 10,4 28 15 - - W 1024,5 22 0,0
18.11.2017 11:00:00 11,9 10,1 28 15 - - W 1025,1 24 0,0
18.11.2017 10:00:00 11,7 9,5 28 15 - - W 1025,1 30 0,0
18.11.2017 09:00:00 11,0 9,1 28 15 - - W 1025,3 30 0,0
18.11.2017 08:00:00 10,7 8,2 26 14 - - W 1025,0 40 0,0
18.11.2017 07:00:00 10,4 7,8 28 15 - - W 1025,2 40 0,0
18.11.2017 06:00:00 9,9 8,4 18 10 - - W 1025,5 45 0,0
18.11.2017 05:00:00 6,8 4,6 8 4 - - E 1026,4 45 0,0
18.11.2017 04:00:00 6,3 4,1 9 5 - - E 1026,6 45 0,0
18.11.2017 03:00:00 5,9 4,0 11 6 - - E 1027,2 30 0,0
18.11.2017 02:00:00 5,5 4,0 11 6 - - E 1027,7 35 0,0
18.11.2017 01:00:00 5,2 3,7 11 6 - - E 1027,9 29 0,0
18.11.2017 00:00:00 5,0 3,7 9 5 - - ESE 1028,6 27 0,0
17.11.2017 23:00:00 4,8 3,5 9 5 - - ESE 1029,0 26 0,0
17.11.2017 22:00:00 4,1 3,0 13 7 - - E 1029,0 20 0,0
17.11.2017 21:00:00 3,3 2,2 9 5 - - ESE 1029,1 19 0,0
17.11.2017 20:00:00 3,4 1,9 11 6 - - E 1029,1 28 0,0
17.11.2017 19:00:00 4,2 1,7 13 7 - - E 1029,2 35 0,0
17.11.2017 18:00:00 5,8 2,9 8 4 - - E 1029,3 40 0,0
17.11.2017 17:00:00 7,5 2,4 8 4 - - NNE 1029,6 50 0,0
17.11.2017 16:00:00 8,7 2,2 5 3 - - NE 1029,5 45 0,0
17.11.2017 15:00:00 9,5 1,8 8 4 - - NE 1029,6 35 0,0
17.11.2017 14:00:00 10,2 1,5 5 3 - - NE 1029,8 35 0,0
17.11.2017 13:00:00 11,2 2,5 4 2 - - SE 1030,7 30 0,0
17.11.2017 12:00:00 9,0 2,6 8 4 - - SSE 1031,0 30 0,0
17.11.2017 11:00:00 6,1 3,6 5 3 - - ESE 1031,5 30 0,0
17.11.2017 10:00:00 3,9 2,3 8 4 - - E 1031,1 21 0,0
17.11.2017 09:00:00 2,3 1,4 9 5 - - ENE 1031,0 27 0,0
17.11.2017 08:00:00 1,3 0,6 11 6 - - E 1030,7 35 0,0
17.11.2017 07:00:00 1,6 0,9 13 7 - - E 1030,4 40 0,0
17.11.2017 06:00:00 2,0 1,1 11 6 - - E 1030,4 40 -
17.11.2017 05:00:00 2,4 1,2 9 5 - - E 1030,2 30 0,0
17.11.2017 04:00:00 2,6 1,7 9 5 - - E 1030,3 40 0,0
17.11.2017 03:00:00 3,3 2,1 9 5 - - E 1030,4 30 0,0
17.11.2017 02:00:00 3,0 1,4 11 6 - - E 1030,2 35 0,0
17.11.2017 01:00:00 3,3 1,1 8 4 - - ESE 1030,3 40 0,0
17.11.2017 00:00:00 5,2 3,5 9 5 - - E 1029,7 35 0,0
16.11.2017 23:00:00 4,6 2,7 5 3 - - SE 1029,4 40 0,0
16.11.2017 22:00:00 6,8 3,1 8 4 - - E 1029,1 50 0,0
16.11.2017 21:00:00 7,3 2,8 11 6 - - NNE 1028,3 40 0,0
16.11.2017 20:00:00 7,2 2,4 13 7 - - NNE 1027,9 30 0,0
16.11.2017 19:00:00 7,7 2,8 11 6 - - N 1027,3 35 -
16.11.2017 18:00:00 8,5 4,0 13 7 - - N 1026,7 35 0,0
16.11.2017 17:00:00 9,7 5,3 5 3 - - N 1025,8 35 -
16.11.2017 16:00:00 10,6 5,8 9 5 - - NNW 1025,2 35 0,0
16.11.2017 15:00:00 10,2 7,4 18 10 - - N 1024,4 40 0,2
16.11.2017 14:00:00 10,7 9,0 24 13 - - N 1023,8 30 1,0
16.11.2017 13:00:00 12,2 11,2 22 12 - - W 1023,4 24 0,6
16.11.2017 12:00:00 13,2 10,9 18 10 - - WSW 1023,4 40 0,0
16.11.2017 11:00:00 12,5 10,0 11 6 - - SW 1023,5 35 0,0
16.11.2017 10:00:00 12,0 9,5 11 6 - - SW 1023,1 45 0,0
16.11.2017 09:00:00 10,6 9,1 13 7 - - SSW 1022,9 23 0,0
16.11.2017 08:00:00 10,0 8,5 13 7 - - S 1022,1 26 0,0
16.11.2017 07:00:00 10,6 9,3 13 7 - - SW 1022,2 30 0,0
16.11.2017 06:00:00 10,5 9,2 11 6 - - SW 1021,9 30 0,0
16.11.2017 05:00:00 10,4 9,2 8 4 - - SW 1021,8 22 0,0
16.11.2017 04:00:00 10,4 9,2 4 2 - - SSW 1021,7 22 0,0
16.11.2017 03:00:00 10,4 9,5 9 5 - - S 1022,0 20 0,0
16.11.2017 02:00:00 10,1 9,4 5 3 - - S 1022,3 14 0,0
16.11.2017 01:00:00 10,2 9,5 8 4 - - SE 1022,4 15 0,0
16.11.2017 00:00:00 10,5 9,8 2 1 - - S 1023,2 13 0,0
15.11.2017 23:00:00 10,6 9,8 4 2 - - SSW 1023,3 12 0,0
15.11.2017 22:00:00 10,6 9,6 5 3 - - E 1023,3 15 0,0
15.11.2017 21:00:00 11,1 10,1 11 6 - - SSW 1023,5 22 0,0
15.11.2017 20:00:00 10,9 10,0 4 2 - - ENE 1023,4 27 0,0
15.11.2017 19:00:00 10,8 9,8 8 4 - - S 1023,4 40 -
15.11.2017 18:00:00 10,8 9,8 5 3 - - SSE 1023,6 30 0,0
15.11.2017 17:00:00 11,9 10,4 8 4 - - SSW 1023,7 30 0,0
15.11.2017 16:00:00 12,7 11,4 9 5 - - SW 1023,9 26 0,0
15.11.2017 15:00:00 12,7 11,6 9 5 - - W 1024,1 29 0,0
15.11.2017 14:00:00 12,6 12,0 8 4 - - WSW 1024,3 35 0,8
15.11.2017 13:00:00 12,1 11,2 4 2 - - ESE 1024,6 1,4 0,2
15.11.2017 12:00:00 12,5 11,3 4 2 - - ESE 1024,6 10 0,0
15.11.2017 11:00:00 11,9 11,4 5 3 - - E 1025,3 35 0,0
15.11.2017 10:00:00 11,2 10,8 11 6 - - E 1025,1 35 0,0
15.11.2017 09:00:00 10,4 10,0 13 7 - - E 1024,9 30 0,0
15.11.2017 08:00:00 10,5 10,0 8 4 - - ENE 1024,9 26 0,0
15.11.2017 07:00:00 10,4 9,7 5 3 - - E 1024,6 22 0,0
15.11.2017 06:00:00 11,1 10,1 8 4 - - E 1024,5 40 0,0
15.11.2017 05:00:00 11,4 10,8 11 6 - - SW 1024,2 50 0,0
15.11.2017 04:00:00 11,6 10,8 15 8 - - W 1024,1 40 0,0
15.11.2017 03:00:00 12,1 11,5 15 8 - - W 1024,2 9 0,4
15.11.2017 02:00:00 12,6 11,8 16 9 - - W 1024,1 19 0,0
15.11.2017 01:00:00 12,6 12,0 16 9 - - W 1024,0 23 0,0
15.11.2017 00:00:00 12,5 12,2 18 10 - - W 1024,2 20 0,0
14.11.2017 23:00:00 12,3 12,0 18 10 - - WSW 1024,1 35 0,0
14.11.2017 22:00:00 12,2 11,9 18 10 - - WSW 1024,2 29 0,4
14.11.2017 21:00:00 11,6 11,2 13 7 - - SW 1024,0 8 0,2
14.11.2017 20:00:00 11,8 11,0 13 7 - - SW 1024,2 10 0,0
14.11.2017 19:00:00 11,7 10,7 15 8 - - SW 1024,1 45 0,0
14.11.2017 18:00:00 11,7 10,7 15 8 - - SW 1024,1 25 0,0
14.11.2017 17:00:00 11,6 10,4 11 6 - - SSW 1023,9 50 0,0
14.11.2017 16:00:00 11,7 10,8 24 13 - - WSW 1024,1 40 0,0
14.11.2017 15:00:00 12,0 10,8 22 12 - - WSW 1024,1 35 0,0
14.11.2017 14:00:00 11,9 10,7 24 13 - - WSW 1024,3 23 0,0
14.11.2017 13:00:00 12,2 11,1 22 12 - - WSW 1024,4 30 0,0
14.11.2017 12:00:00 11,6 10,8 22 12 - - WSW 1024,6 4,7 0,0
14.11.2017 11:00:00 12,0 10,4 24 13 - - WSW 1024,8 29 0,0
14.11.2017 10:00:00 11,8 10,5 22 12 - - WSW 1024,6 30 0,2
14.11.2017 09:00:00 12,0 9,3 24 13 - - W 1024,3 35 0,0
14.11.2017 08:00:00 11,8 9,0 22 12 - - W 1024,2 35 -
14.11.2017 07:00:00 11,7 8,4 24 13 - - W 1024,0 27 0,0
14.11.2017 06:00:00 11,5 8,3 26 14 - - W 1024,0 22 0,0
14.11.2017 05:00:00 11,4 8,0 22 12 - - W 1024,2 29 0,0
14.11.2017 04:00:00 11,3 7,6 24 13 - - W 1024,3 28 0,0
14.11.2017 03:00:00 11,2 7,2 26 14 - - W 1024,6 25 0,0
14.11.2017 02:00:00 11,0 7,1 24 13 - - W 1025,3 23 0,0
14.11.2017 01:00:00 10,6 7,1 13 7 - - WSW 1025,8 35 0,0
14.11.2017 00:00:00 9,0 6,0 13 7 - - SW 1026,2 50 0,0
13.11.2017 23:00:00 9,1 5,7 15 8 - - SW 1026,3 50 0,0
13.11.2017 22:00:00 8,7 5,3 13 7 - - SW 1026,6 40 0,0
13.11.2017 21:00:00 9,2 5,3 5 3 - - WSW 1026,8 45 0,0
13.11.2017 20:00:00 8,8 5,2 13 7 - - W 1026,9 50 0,0
13.11.2017 19:00:00 7,8 3,2 11 6 - - WNW 1027,5 45 0,0

tt = Température de l'air
td = dewpoint
ff = Vitesse du vent
fx = gusts
dd = Direction du vent
ppp = reduced air pressure
vv = visibility
rr = Quantités de précipitations

stations d'obs. à proximité